Location: Gebenbach
(49.5378°N, 11.8735°E)
Time: 03:34:20
(UTC+00:00)

Cosmos 1346 Rocket - Pass Details

Date: 29 October 2020
Orbit: 535 x 543 km, 81.2° (Epoch: 27 November)

Event Time Altitude Azimuth Distance (km) Brightness Sun altitude
Rises 17:28:08 0° 348° (NNW) 2,717 6.5 -15.6°
Reaches altitude 10° 17:30:19 10° 349° (NNW) 1,821 5.6 -15.9°
Maximum altitude 17:34:20 87° 75° (ENE) 552 2.7 -16.6°
Drops below altitude 10° 17:38:19 10° 168° (SSE) 1,806 5.3 -17.2°
Sets 17:40:28 0° 169° (S) 2,694 6.2 -17.6°
